Location: Capvern
(43.1036°N, 0.3160°E)
Time: 23:46:20
(UTC+00:00)

Meteor 1-21 Rocket - Pass Details

Date: 16 October 2021
Orbit: 834 x 906 km, 81.2° (Epoch: 04 December)

Event Time Altitude Azimuth Distance (km) Brightness Sun altitude
Rises 18:16:17 0° 352° (N) 3,491 7.5 -12.1°
Reaches altitude 10° 18:18:45 10° 355° (N) 2,558 6.8 -12.5°
Maximum altitude 18:24:35 68° 78° (ENE) 962 4.3 -13.6°
Drops below altitude 10° 18:30:26 10° 162° (SSE) 2,576 6.5 -14.7°
Sets 18:32:55 0° 164° (SSE) 3,516 7.2 -15.1°
